Volver al catálogo

FENGYUN 1C DEB

ActivoSSO
NORAD 33724·DEBRIS·🇨🇳 China

Lanzado May 10, 1999 desde Taiyuan Satellite Launch Center

Loading…

Próximos Pases (próximas 24 horas)

TLE

ActualizadoSource: Space-Track

Época: Sep 14, 2026, 06:41 UTC

1 33724U 99025DHM 26257.27862781  .00000521  00000-0  26324-3 0  9995
2 33724  98.6010 264.8720 0028574 106.3725 266.8523 14.20107934978720

Sigue FENGYUN 1C DEB en tiempo real con AllMySat

Download on the App Store